Weather History for Buckhannon, WV

Change the Weather History Date:

Friday, April 19, 2013

  Actual Average (KEKN) Record (KEKN)
Temperature  
Mean Temperature 58 °F 51 °F  
Max Temperature 73 °F 64 °F 85 °F (1976)
Min Temperature 42 °F 38 °F 20 °F (1990)
Degree Days  
Heating Degree Days 8 14  
Month to date heating degree days 324  
Since 1 July heating degree days 5425  
Cooling Degree Days 0 0  
Month to date cooling degree days 0  
Year to date cooling degree days 0  
Growing Degree Days 8 (Base 50)    
Moisture  
Dew Point 49 °F    
Average Humidity 70    
Maximum Humidity 100    
Minimum Humidity 50    
Precipitation  
Precipitation 0.32 in 0.12 in 1.50 in (1998)
Month to date precipitation 2.37  
Year to date precipitation 12.66  
Snow  
Snow 0.00 in - - ()
Month to date snowfall  
Since 1 September snowfall  
Snow Depth -    
Sea Level Pressure  
Sea Level Pressure 29.76 in    
Wind  
Wind Speed 15 mph (SSW)    
Max Wind Speed 28 mph    
Max Gust Speed 46 mph    
Visibility 9 miles    
Events Rain    
T = Trace of Precipitation, MM = Missing Value Source: NWS Daily Summary

Daily Weather History Graph

Daily Weather History Graph

Search for Another Location

Airport:

Trip Planner

Search our weather history database for the weather conditions in past years. The results will help you decide how hot, cold, wet, or windy it might be!

Date:

Astronomy

Apr. 19, 2013 Rise Set
Actual Time 6:38 AM EDT 8:02 PM EDT
Civil Twilight 6:10 AM EDT 8:30 PM EDT
Nautical Twilight 5:37 AM EDT 9:03 PM EDT
Astronomical Twilight 5:02 AM EDT 9:39 PM EDT
Moon 1:48 PM EDT (4/19) 2:49 AM EDT (4/19)
Length of Visible Light 14h 19m
Length of Day
13h 23m
First Quarter, 61% of the Moon is Illuminated
Apr 19
First Quarter
Apr 25
Full
May 2
Last Quarter
May 9
New
May 18
First Quarter

Hourly Weather History & Observations

Time (EDT) Temp. Windchill Dew Point Humidity Pressure Visibility Wind Dir Wind Speed Gust Speed Precip Events Conditions
12:15 AM 68.0 °F - 51.8 °F 56% 29.87 in 10.0 mi South 13.8 mph 18.4 mph N/A   Clear
12:35 AM 68.0 °F - 51.8 °F 56% 29.85 in 10.0 mi South 10.4 mph 20.7 mph N/A   Clear
12:55 AM 68.0 °F - 51.8 °F 56% 29.84 in 10.0 mi South 11.5 mph 18.4 mph N/A   Clear
1:15 AM 68.0 °F - 51.8 °F 56% 29.82 in 10.0 mi South 12.7 mph 18.4 mph N/A   Clear
1:35 AM 68.0 °F - 51.8 °F 56% 29.82 in 10.0 mi South 9.2 mph - N/A   Clear
1:55 AM 68.0 °F - 51.8 °F 56% 29.81 in 10.0 mi SSE 9.2 mph - N/A   Clear
2:15 AM 68.0 °F - 51.8 °F 56% 29.80 in 10.0 mi South 9.2 mph - N/A   Clear
2:35 AM 68.0 °F - 51.8 °F 56% 29.78 in 10.0 mi South 13.8 mph - N/A   Clear
2:55 AM 68.0 °F - 53.6 °F 60% 29.78 in 10.0 mi South 10.4 mph 19.6 mph N/A   Clear
3:15 AM 68.0 °F - 53.6 °F 60% 29.77 in 10.0 mi South 10.4 mph 16.1 mph N/A   Clear
3:35 AM 68.0 °F - 53.6 °F 60% 29.75 in 10.0 mi South 12.7 mph - N/A   Clear
3:55 AM 68.0 °F - 53.6 °F 60% 29.75 in 10.0 mi South 9.2 mph 18.4 mph N/A   Clear
4:15 AM 69.8 °F - 53.6 °F 56% 29.74 in 10.0 mi South 20.7 mph 25.3 mph N/A   Clear
4:35 AM 69.8 °F - 53.6 °F 56% 29.74 in 10.0 mi South 13.8 mph 26.5 mph N/A   Clear
4:55 AM 69.8 °F - 53.6 °F 56% 29.74 in 10.0 mi South 17.3 mph 24.2 mph N/A   Clear
5:15 AM 68.0 °F - 53.6 °F 60% 29.74 in 10.0 mi South 19.6 mph 27.6 mph N/A   Scattered Clouds
5:35 AM 68.0 °F - 53.6 °F 60% 29.72 in 10.0 mi South 20.7 mph 28.8 mph N/A   Partly Cloudy
5:55 AM 68.0 °F - 53.6 °F 60% 29.72 in 10.0 mi South 18.4 mph 21.9 mph N/A   Clear
6:15 AM 68.0 °F - 53.6 °F 60% 29.71 in 10.0 mi South 18.4 mph 24.2 mph N/A   Clear
6:35 AM 69.8 °F - 53.6 °F 56% 29.71 in 10.0 mi South 17.3 mph 24.2 mph N/A   Clear
6:55 AM 68.0 °F - 53.6 °F 60% 29.70 in 10.0 mi South 15.0 mph 26.5 mph N/A   Clear
7:15 AM 69.8 °F - 53.6 °F 56% 29.71 in 10.0 mi South 12.7 mph 24.2 mph N/A   Clear
7:35 AM 69.8 °F - 53.6 °F 56% 29.70 in 10.0 mi South 19.6 mph 26.5 mph N/A   Clear
7:55 AM 69.8 °F - 53.6 °F 56% 29.69 in 10.0 mi South 18.4 mph 27.6 mph N/A   Clear
8:15 AM 69.8 °F - 53.6 °F 56% 29.69 in 10.0 mi South 18.4 mph 27.6 mph N/A   Clear
8:35 AM 69.8 °F - 53.6 °F 56% 29.69 in 10.0 mi South 24.2 mph 34.5 mph N/A   Clear
8:55 AM 69.8 °F - 53.6 °F 56% 29.67 in 10.0 mi South 18.4 mph 24.2 mph N/A   Clear
9:15 AM 71.6 °F - 53.6 °F 53% 29.66 in 10.0 mi South 20.7 mph 27.6 mph N/A   Scattered Clouds
9:55 AM 71.6 °F - 53.6 °F 53% 29.66 in 10.0 mi SSW 20.7 mph 46.0 mph N/A   Scattered Clouds
10:15 AM 73.4 °F - 53.6 °F 50% 29.64 in 10.0 mi SSW 23.0 mph 36.8 mph N/A   Mostly Cloudy
10:35 AM 73.4 °F - 53.6 °F 50% 29.65 in 10.0 mi SSW 23.0 mph 34.5 mph N/A   Overcast
10:55 AM 69.8 °F - 55.4 °F 60% 29.66 in 5.0 mi South 25.3 mph 41.4 mph N/A Rain Light Rain
11:15 AM 69.8 °F - 55.4 °F 60% 29.68 in 4.0 mi SSW 18.4 mph 27.6 mph N/A   Haze
11:35 AM 68.0 °F - 57.2 °F 68% 29.67 in 5.0 mi SSW 23.0 mph 31.1 mph N/A   Haze
11:55 AM 68.0 °F - 55.4 °F 64% 29.62 in 9.0 mi South 23.0 mph 33.4 mph N/A   Mostly Cloudy
12:15 PM 69.8 °F - 57.2 °F 64% 29.62 in 10.0 mi South 23.0 mph 32.2 mph N/A   Partly Cloudy
12:35 PM 71.6 °F - 57.2 °F 60% 29.60 in 10.0 mi South 17.3 mph 32.2 mph N/A   Clear
12:55 PM 71.6 °F - 55.4 °F 57% 29.59 in 10.0 mi South 24.2 mph 34.5 mph N/A   Scattered Clouds
1:15 PM 73.4 °F - 55.4 °F 53% 29.59 in 10.0 mi South 27.6 mph 41.4 mph N/A   Mostly Cloudy
1:35 PM 71.6 °F - 55.4 °F 57% 29.61 in 8.0 mi WSW 20.7 mph 33.4 mph N/A   Mostly Cloudy
1:55 PM 60.8 °F - 60.8 °F 100% 29.64 in 2.0 mi West 19.6 mph 33.4 mph 0.11 in Rain Rain
2:15 PM 55.4 °F - 55.4 °F 100% 29.68 in 1.8 mi West 10.4 mph 27.6 mph 0.05 in Rain Rain
2:35 PM 53.6 °F - 53.6 °F 100% 29.71 in 10.0 mi West 20.7 mph 29.9 mph 0.06 in Rain Light Rain
2:55 PM 51.8 °F - 51.8 °F 100% 29.73 in 3.0 mi West 10.4 mph 19.6 mph 0.10 in   Light Drizzle
3:15 PM 50.0 °F - 50.0 °F 100% 29.74 in 5.0 mi West 18.4 mph 25.3 mph N/A   Overcast
3:35 PM 48.2 °F - 48.2 °F 100% 29.82 in 2.0 mi West 20.7 mph 33.4 mph 0.04 in Rain Heavy Rain
3:55 PM 48.2 °F - 48.2 °F 100% 29.78 in 7.0 mi WSW 17.3 mph 26.5 mph 0.11 in   Overcast
4:15 PM 48.2 °F - 48.2 °F 100% 29.78 in 10.0 mi WSW 4.6 mph - N/A Rain Light Rain
4:35 PM 46.4 °F 41.5 °F 46.4 °F 100% 29.78 in 10.0 mi WNW 10.4 mph 17.3 mph N/A   Overcast
4:55 PM 46.4 °F 41.5 °F 46.4 °F 100% 29.80 in 10.0 mi West 10.4 mph - N/A   Overcast
5:15 PM 46.4 °F 40.4 °F 46.4 °F 100% 29.82 in 10.0 mi WSW 13.8 mph 18.4 mph N/A   Overcast
5:35 PM 46.4 °F 40.7 °F 44.6 °F 93% 29.83 in 10.0 mi WSW 12.7 mph 17.3 mph N/A   Overcast
5:55 PM 46.4 °F 40.1 °F 42.8 °F 87% 29.82 in 10.0 mi WSW 15.0 mph 24.2 mph N/A   Mostly Cloudy
6:15 PM 46.4 °F 41.5 °F 42.8 °F 87% 29.84 in 10.0 mi West 10.4 mph 24.2 mph N/A   Overcast
6:35 PM 44.6 °F 39.2 °F 42.8 °F 93% 29.85 in 10.0 mi SW 10.4 mph - N/A   Overcast
6:55 PM 44.6 °F 40.7 °F 42.8 °F 93% 29.84 in 10.0 mi WSW 6.9 mph - N/A   Overcast
7:15 PM 44.6 °F 40.2 °F 41.0 °F 87% 29.84 in 10.0 mi SW 8.1 mph - N/A   Overcast
7:35 PM 44.6 °F 41.4 °F 39.2 °F 81% 29.84 in 10.0 mi SW 5.8 mph - N/A   Overcast
7:55 PM 44.6 °F 38.8 °F 39.2 °F 81% 29.83 in 10.0 mi SW 11.5 mph - N/A   Mostly Cloudy
8:15 PM 44.6 °F - 39.2 °F 81% 29.84 in 10.0 mi Calm Calm - N/A   Mostly Cloudy
8:35 PM 44.6 °F 41.4 °F 39.2 °F 81% 29.85 in 10.0 mi SW 5.8 mph - N/A   Mostly Cloudy
8:55 PM 44.6 °F - 39.2 °F 81% 29.86 in 10.0 mi Calm Calm - N/A   Mostly Cloudy
9:15 PM 44.6 °F 39.2 °F 39.2 °F 81% 29.87 in 10.0 mi WSW 10.4 mph - N/A   Overcast
9:35 PM 44.6 °F 38.8 °F 37.4 °F 76% 29.89 in 10.0 mi West 11.5 mph - N/A   Overcast
9:55 PM 44.6 °F 37.4 °F 35.6 °F 71% 29.90 in 10.0 mi West 16.1 mph 20.7 mph N/A   Overcast
10:15 PM 44.6 °F 37.4 °F 33.8 °F 66% 29.91 in 10.0 mi West 16.1 mph - N/A   Overcast
10:35 PM 44.6 °F 37.8 °F 32.0 °F 61% 29.91 in 10.0 mi West 15.0 mph 23.0 mph N/A   Overcast
10:55 PM 42.8 °F 35.1 °F 32.0 °F 66% 29.92 in 10.0 mi WSW 16.1 mph 23.0 mph N/A   Overcast
11:15 PM 42.8 °F 35.1 °F 32.0 °F 66% 29.93 in 10.0 mi WSW 16.1 mph 23.0 mph N/A   Overcast
11:35 PM 42.8 °F 35.4 °F 32.0 °F 66% 29.93 in 10.0 mi WSW 15.0 mph 24.2 mph N/A   Overcast
11:55 PM 42.8 °F 36.2 °F 32.0 °F 66% 29.93 in 10.0 mi West 12.7 mph 25.3 mph N/A   Overcast